512  
ASUS42 KTBW 300616  
RWRFL  
FLORIDA REGIONAL WEATHER ROUNDUP  
NATIONAL WEATHER SERVICE TAMPA BAY RUSKIN FL  
200 AM EDT SAT APR 30 2016  
 
NOTE: "FAIR" INDICATES FEW OR NO CLOUDS BELOW 12,000 FEET WITH NO  
SIGNIFICANT WEATHER AND/OR S TO VISIBILITY
.  
 
FLZ001>010-012>015-112-114-115-300700-  
PANHANDLE FLORIDA  
 
CITY SKY/WX TMP DP RH WIND PRES REMARKS
 
PENSACOLA CLOUDY 76 72 87 SE9 29.91F  
MILTON NAS LGT RAIN 72 72 100 E5 29.92  
CRESTVIEW FOG 71 70 96 CALM 29.95F VSB 1/4  
DUKE FIELD FOG 71 71 99 NE2 29.92F VSB 3/4  
VALPARAISO PTCLDY 74 72 95 CALM 29.92F  
MARY ESTHER CLOUDY 73 73 100 N5 29.90F  
PANAMA CITY FOG 71 70 96 E3 29.91F VSB 1/4  
TYNDALL AFB FOG 69 69 99 CALM 29.92F VSB 1  
APALACHICOLA FOG 68 68 100 E3 29.93F VSB 1/2  
 
STATION/POSITION SKY/WX TEMP WIND PRES WAVE SWELL
 
AIR SEA DIR/SP/G HT/PER HT/PER  
(F) (DEG/KT/KT) (MB) (FT/S) (FT/S)  
30.1N 87.6W 75 74 110/ 10/ 12 1011.5F 2/ 6 2/ 6  
29.2N 88.2W 75 74 130/ 10/ 12 1012.1F  
28.8N 86.0W 78 78 130/ 10/ 12 1013.2F 2/ 6 2/ 6  
PANAMA CITY BEAC 75 78 140/ 6/ 7 1014.5F  
TOWER C 74 CALM 1014.2F  
28.5N 84.5W 75 76 150/ 2/ 4 1013.6R 2/ 5 2/ 5  
 

 
FLZ011-016>038-118-127-128-134-139-239-300700-  
NORTH FLORIDA  
 
CITY SKY/WX TMP DP RH WIND PRES REMARKS
 
MARIANNA CLEAR 72 72 100 CALM 29.94F  
TALLAHASSEE CLEAR 69 65 86 CALM 29.95F  
PERRY CLEAR 70 69 96 CALM 29.95F FOG  
LIVE OAK N/A 72 72 100 CALM 29.97F  
CROSS CITY N/A 72 69 90 CALM 29.96R  
LAKE CITY FAIR 68 68 100 CALM 29.97F  
GAINESVILLE PTCLDY 69 67 93 CALM 29.96F  
WILLISTON FAIR 72 70 94 CALM 29.96S  
PALATKA CLOUDY 73 73 100 SE6 29.97S  
MAYPORT NAS CLEAR 70 69 97 SW5 29.96F  
JACKSONVILLE PTCLDY 72 69 90 CALM 29.96S  
JAX NAS CLEAR 77 70 79 S8 29.97F  
JAX CECIL PTCLDY 70 68 94 CALM 29.97F  
FERNANDINA BEA FAIR 75 72 88 S5 29.95S  
ST AUGUSTINE MOCLDY 72 69 90 CALM 29.97F  
PALM COAST MOCLDY 70 70 100 CALM 29.96F  
 
STATION/POSITION SKY/WX TEMP WIND PRES WAVE SWELL
 
AIR SEA DIR/SP/G HT/PER HT/PER  
(F) (DEG/KT/KT) (MB) (FT/S) (FT/S)  
SHELL POINT 74 310/ 4/ 6 1013.6  
KEATON BEACH 75 30/ 2/ 3 1013.6F  
CEDAR KEY 76 70/ 7/ 8 1014.7R  
FERNANDINA 74 74 160/ 6/ 9 1014.5F  
30.7N 81.3W 73 N/A 2/ 9  
MAYPORT 73 73 200/ 4/ 5 1014.9F  
ST AUGUSTINE 73 71 210/ 4/ 5 1015.1F  
 

 
FLZ040-043>046-052-053-057-058-063-144-300700-  
INTERIOR CENTRAL FLORIDA  
 
CITY SKY/WX TMP DP RH WIND PRES REMARKS
 
OCALA CLEAR 68 63 83 CALM 29.96F  
THE VILLAGES N/A 75 72 88 CALM 29.86F  
LEESBURG CLEAR 75 70 84 SE5 29.96F  
SANFORD MOCLDY 75 69 81 SE8 29.95F  
ORLANDO EXEC PTCLDY 75 68 78 E5 29.96F  
ORLANDO INTL PTCLDY 74 67 78 SE7 29.96F  
WINTER HAVEN CLEAR 74 69 85 SE7 29.96F  
BARTOW FAIR 70 70 100 CALM 29.96F  
OKEECHOBEE CLEAR 72 68 88 S5 29.97F  
 

 
FLZ041-047-054-059-064-141-147-300700-  
EAST CENTRAL FLORIDA  
 
CITY SKY/WX TMP DP RH WIND PRES REMARKS
 
DAYTONA BEACH PTCLDY 71 70 96 CALM 29.96F  
DELAND N/A 70 68 94 CALM 29.97F  
JFK SPACE CTR CLEAR 70 68 92 S1 29.95F  
CAPE CANAVERAL CLEAR 73 70 92 S5 29.95F  
PATRICK AFB CLEAR 76 70 83 S6 29.96F  
MELBOURNE CLEAR 73 69 87 S6 29.97F  
VERO BEACH CLEAR 74 68 81 S5 29.97F  
FT PIERCE CLEAR 68 65 90 CALM 29.97S  
STUART CLEAR 77 70 78 CALM 29.98S  
 
STATION/POSITION SKY/WX TEMP WIND PRES WAVE SWELL
 
AIR SEA DIR/SP/G HT/PER HT/PER  
(F) (DEG/KT/KT) (MB) (FT/S) (FT/S)  
28.5N 80.2W 77 78 160/ 10/ 10 1015.1F  
28.9N 78.5W 76 77 180/ 6/ 6 1015.6F  
TRIDENT PIER 77 79 150/ 7/ 10 1014.9F  
28.4N 80.5W 77 N/A 2/11  
27.5N 80.2W 78 N/A 2/ 3  
 

 
FLZ050-056-061-142-242-148-248-149-249-151-251-155-255-  
160-260-300700-  
WEST CENTRAL FLORIDA  
 
CITY SKY/WX TMP DP RH WIND PRES REMARKS
 
CRYSTAL RIVER FAIR 68 68 100 CALM 29.95F  
INVERNESS FAIR 68 68 100 CALM 29.96F  
BROOKSVILLE CLEAR 66 64 93 CALM 29.96F  
ZEPHYRHILLS FAIR 69 63 82 CALM 29.95F  
CLEARWATER AIR FAIR 73 68 83 CALM 29.94F  
ST PETE CLEARW CLEAR 77 69 76 NE3 29.94F  
TAMPA INTL CLEAR 77 68 73 CALM 29.94F  
TAMPA EXEC CLEAR 72 68 88 CALM 29.95F  
PLANT CITY CLEAR 72 68 88 CALM 29.96F  
MACDILL AFB CLEAR 72 69 89 NE1 29.94F  
PETER O KNIGHT CLEAR 77 70 78 NE5 29.95F  
ST PETERSBURG MOCLDY 78 68 71 E6 29.93F  
SARASOTA MOCLDY 74 68 81 CALM 29.93F  
VENICE NOT AVBL  
 
STATION/POSITION SKY/WX TEMP WIND PRES WAVE SWELL
 
AIR SEA DIR/SP/G HT/PER HT/PER  
(F) (DEG/KT/KT) (MB) (FT/S) (FT/S)  
27.3N 84.2W 80 N/A 1/ 6  
CLEARWATER BEACH 77 81 70/ 5/ 8 1014.7F  
MIDDLE TAMPA BAY NOT AVBL  
VENICE 76 81 90/ 3/ 4 1013.7F  
 

 
FLZ066-069-070-075>078-162-262-165-265-300700-  
SOUTHWEST FLORIDA AND KEYS  
 
CITY SKY/WX TMP DP RH WIND PRES REMARKS
 
PUNTA GORDA CLEAR 69 69 100 E3 29.96F  
FT MYERS CLEAR 71 68 90 E3 29.94F  
SOUTHWEST INTL CLEAR 69 66 90 CALM 29.95F  
NAPLES CLEAR 73 68 84 E3 29.94F  
MARCO ISLAND PTCLDY 70 64 83 E3 29.94F  
MARATHON CLEAR 78 68 71 E8 29.93F  
KEY WEST NAS PTCLDY 78 68 71 E14 29.93  
KEY WEST INTL PTCLDY 77 71 82 SE15 29.93F  
 
STATION/POSITION SKY/WX TEMP WIND PRES WAVE SWELL
 
AIR SEA DIR/SP/G HT/PER HT/PER  
(F) (DEG/KT/KT) (MB) (FT/S) (FT/S)  
NAPLES 83 1014.5F  
26.0N 85.6W 79 80 100/ 16/ 17 1012.5F 3/ 6  
DRY TORTUGAS 78 140/ 14/ 16 1013.1F  
SAND KEY 78 140/ 18/ 21 1013.8F  
LONG KEY 78 82 100/ 13/ 15 1014.3F  
 

 
FLZ067-068-071>074-168-172>174-300700-  
SOUTHEAST FLORIDA  
 
CITY SKY/WX TMP DP RH WIND PRES REMARKS
 
W PALM BEACH PTCLDY 76 67 73 SE6 29.97F  
FT LAUDER-EXEC PTCLDY 76 66 71 E9 29.95F  
FT LAUDERDALE PTCLDY 77 66 68 E10 29.95F  
POMPANO BEACH CLEAR 74 67 78 E9 29.95F  
PEMBROKE PINES CLEAR 76 66 71 E8 29.96F  
OPA LOCKA PTCLDY 76 66 71 E9 29.95F  
MIAMI PTCLDY 77 65 66 E10 29.95F  
WEST KENDALL N/A N/A N/A N/A MISG 29.95F  
HOMESTEAD CLEAR 76 66 70 E8 29.94F  
 
STATION/POSITION SKY/WX TEMP WIND PRES WAVE SWELL
 
AIR SEA DIR/SP/G HT/PER HT/PER  
(F) (DEG/KT/KT) (MB) (FT/S) (FT/S)  
PORT EVERGLADES 78 100/ 4/ 7 1014.2F  
VIRGINIA KEY 78 81 90/ 13/ 14 1015.1F  
LAKE WORTH 77 79 130/ 11/ 12 1014.9F  
SETTLEMENT POINT 76 120/ 9/ 12 1014.8F  
 

 
 
 
 
CLICK HERE TO GO TO PREVIOUS BULLETINS.

The Nexlab FL Page Main Text Page